Fort Lewis, WA
on Tuesday, February 5, 2013

Tuesday
Previous Day Next Day
Daily Summary
 ActualAverage (KOLM)Record (KOLM)
Temperature
Mean Temperature °F 40°F  
Max Temperature 50°F 48°F 62°F (1961)
Min Temperature 42°F 33°F 2°F (1989)
Degree Days
Heating Degree Days 19 24  
Month to date heating degree days 121  
Since 1 July heating degree days 3172  
Cooling Degree Days 0 0  
Month to date cooling degree days 0  
Year to date cooling degree days 0  
Moisture
Dew Point 41°F   
Average Humidity 85    
Maximum Humidity 93    
Minimum Humidity 69    
Precipitation
Precipitation 0.17 in 0.21 in 1.32 in (1996)
Month to date precipitation 1.01  
Year to date precipitation 8.85  
Wind
Wind Speed 8 mph   
Max Wind Speed 22 mph   
Max Gust Speed 26 mph   
Visibility 10 miles   
Events Rain   

Key: T is trace of precipitation, MM is missing value
Source: NWS Daily Summary
Time(PST)TemperatureDew PointHumidity Pressure Visibility Wind DirectionWind SpeedGust SpeedPrecipitationEvents Conditions
12:58 AM 43.3°F 40.8°F 91% 29.92 in 10.0 miles WNW 3.5 mph - N/A   Overcast
1:58 AM 45.7°F 41.2°F 84% 29.92 in 10.0 miles WNW 5.8 mph - N/A   Overcast
2:58 AM 45.1°F 40.1°F 82% 29.89 in 10.0 miles WNW 6.9 mph - N/A   Mostly Cloudy
3:58 AM 46.0°F 39.9°F 79% 29.89 in 10.0 miles WNW 3.5 mph - N/A   Mostly Cloudy
4:08 AM 46.4°F 39.2°F 76% 29.88 in 10.0 miles WNW 2.3 mph - N/A   Light Drizzle
4:58 AM 44.2°F 41.5°F 90% 29.89 in 10.0 miles West 5.8 mph - 0.03 in Rain Light Rain
5:23 AM 44.6°F 41.0°F 87% 29.86 in 10.0 miles West 6.9 mph - N/A   Light Drizzle
5:33 AM 44.6°F 41.0°F 87% 29.85 in 10.0 miles West 8.1 mph - N/A   Light Drizzle
5:34 AM 44.6°F 41.0°F 87% 29.85 in 10.0 miles West 8.1 mph - N/A   Scattered Clouds
5:58 AM 43.2°F 40.8°F 91% 29.87 in 10.0 miles West 4.6 mph - 0.01 in   Partly Cloudy
6:43 AM 42.8°F 41.0°F 93% 29.85 in 10.0 miles West 3.5 mph - N/A   Overcast
6:52 AM 42.8°F 41.0°F 93% 29.85 in 10.0 miles West 2.3 mph - N/A   Mostly Cloudy
6:58 AM 42.4°F 40.3°F 92% 29.86 in 10.0 miles West 2.3 mph - 0.01 in   Mostly Cloudy
7:51 AM 44.6°F 39.2°F 81% 29.86 in 10.0 miles WNW 1.2 mph - N/A   Mostly Cloudy
7:58 AM 44.2°F 39.9°F 85% 29.88 in 10.0 miles Calm Calm - 0.00 in   Light Drizzle
8:20 AM 44.6°F 41.0°F 87% 29.86 in 10.0 miles West 2.3 mph - N/A   Mostly Cloudy
8:58 AM 45.9°F 40.3°F 81% 29.88 in 10.0 miles West 3.5 mph - 0.00 in   Scattered Clouds
9:58 AM 48.7°F 40.5°F 73% 29.88 in 10.0 miles West 4.6 mph - N/A   Partly Cloudy
10:28 AM 50.0°F 41.0°F 71% 29.87 in 10.0 miles South 16.1 mph 26.5 mph N/A   Mostly Cloudy
10:33 AM 50.0°F 41.0°F 71% 29.87 in 10.0 miles South 13.8 mph 26.5 mph N/A   Mostly Cloudy
10:38 AM 50.0°F 41.0°F 71% 29.87 in 10.0 miles SSE 19.6 mph 26.5 mph N/A   Mostly Cloudy
10:43 AM 50.0°F 41.0°F 71% 29.87 in 10.0 miles SSE 21.9 mph 26.5 mph N/A   Mostly Cloudy
10:58 AM 50.0°F 40.1°F 69% 29.89 in 10.0 miles SSE 13.8 mph 23.0 mph N/A   Mostly Cloudy
11:23 AM 50.0°F 41.0°F 71% 29.88 in 10.0 miles South 11.5 mph 20.7 mph N/A   Mostly Cloudy
11:53 AM 50.0°F 41.0°F 71% 29.87 in 10.0 miles South 18.4 mph 20.7 mph N/A   Mostly Cloudy
11:58 AM 50.0°F 41.0°F 71% 29.89 in 10.0 miles South 12.7 mph 24.2 mph N/A   Overcast
11:59 AM 50.0°F 41.0°F 71% 29.87 in 10.0 miles South 11.5 mph 24.2 mph N/A   Light Drizzle
12:04 PM 48.2°F 41.0°F 76% 29.87 in 10.0 miles South 16.1 mph 24.2 mph N/A   Light Drizzle
12:09 PM 48.2°F 41.0°F 76% 29.87 in 10.0 miles South 17.3 mph 25.3 mph N/A   Light Drizzle
12:14 PM 48.2°F 41.0°F 76% 29.87 in 10.0 miles South 12.7 mph 25.3 mph N/A   Light Drizzle
12:17 PM 48.2°F 41.0°F 76% 29.87 in 10.0 miles South 10.4 mph 25.3 mph N/A   Overcast
12:53 PM 48.2°F 41.0°F 76% 29.87 in 10.0 miles South 13.8 mph 23.0 mph N/A Rain Light Rain
12:58 PM 47.8°F 41.9°F 80% 29.89 in 10.0 miles South 10.4 mph 23.0 mph 0.01 in Rain Light Rain
1:03 PM 46.4°F 42.8°F 87% 29.87 in 10.0 miles South 11.5 mph - N/A Rain Light Rain
1:05 PM 46.4°F 42.8°F 87% 29.87 in 10.0 miles South 11.5 mph - N/A   Overcast
1:10 PM 48.2°F 42.8°F 82% 29.86 in 10.0 miles South 9.2 mph - N/A   Overcast
1:15 PM 48.2°F 42.8°F 82% 29.86 in 10.0 miles South 10.4 mph - N/A   Mostly Cloudy
1:58 PM 49.5°F 41.4°F 74% 29.87 in 10.0 miles SSE 11.5 mph - 0.00 in   Scattered Clouds
2:05 PM 50.0°F 41.0°F 71% 29.85 in 10.0 miles South 13.8 mph 20.7 mph N/A Rain Light Rain
2:14 PM 48.2°F 41.0°F 76% 29.85 in 10.0 miles South 11.5 mph 20.7 mph N/A   Mostly Cloudy
2:39 PM 48.2°F 42.8°F 82% 29.86 in 5.0 miles South 12.7 mph 20.7 mph N/A   Haze
2:44 PM 46.4°F 41.0°F 81% 29.86 in 6.0 miles South 10.4 mph 20.7 mph N/A   Haze
2:49 PM 46.4°F 42.8°F 87% 29.86 in 10.0 miles South 8.1 mph - N/A   Mostly Cloudy
2:58 PM 46.8°F 43.2°F 87% 29.88 in 10.0 miles South 9.2 mph - 0.01 in   Overcast
3:58 PM 47.3°F 43.7°F 87% 29.87 in 10.0 miles South 6.9 mph - 0.01 in   Overcast
4:03 PM 48.2°F 44.6°F 87% 29.85 in 10.0 miles South 5.8 mph - N/A   Overcast
4:08 PM 46.4°F 44.6°F 93% 29.85 in 10.0 miles South 5.8 mph - N/A   Overcast
4:14 PM 46.4°F 44.6°F 93% 29.86 in 10.0 miles South 8.1 mph - N/A   Light Drizzle
4:24 PM 46.4°F 44.6°F 93% 29.86 in 4.0 miles South 11.5 mph 20.7 mph N/A Rain Light Rain
4:39 PM 46.4°F 44.6°F 93% 29.86 in 8.0 miles South 8.1 mph - N/A Rain Light Rain
4:44 PM 46.4°F 44.6°F 93% 29.86 in 8.0 miles South 6.9 mph - N/A   Light Drizzle
4:49 PM 46.4°F 44.6°F 93% 29.86 in 7.0 miles South 6.9 mph - N/A Rain Light Rain
4:58 PM 46.2°F 44.4°F 93% 29.88 in 10.0 miles South 9.2 mph - 0.06 in   Light Drizzle
4:59 PM 46.4°F 44.6°F 93% 29.86 in 10.0 miles South 10.4 mph - N/A   Mostly Cloudy
5:09 PM 46.4°F 42.8°F 87% 29.86 in 10.0 miles South 12.7 mph - N/A   Mostly Cloudy
5:58 PM 44.2°F 41.2°F 89% 29.89 in 10.0 miles South 11.5 mph - 0.00 in   Scattered Clouds
6:40 PM 42.8°F 41.0°F 93% 29.89 in 10.0 miles South 8.1 mph - N/A   Light Drizzle
6:45 PM 42.8°F 41.0°F 93% 29.89 in 9.0 miles South 8.1 mph - N/A Rain Light Rain
6:58 PM 43.2°F 41.0°F 92% 29.90 in 9.0 miles South 13.8 mph - 0.02 in Rain Light Rain
6:59 PM 42.8°F 41.0°F 93% 29.89 in 10.0 miles South 11.5 mph - N/A   Mostly Cloudy
7:04 PM 42.8°F 41.0°F 93% 29.88 in 10.0 miles South 13.8 mph - N/A   Mostly Cloudy
7:49 PM 42.8°F 39.2°F 87% 29.90 in 10.0 miles South 10.4 mph - N/A Rain Light Rain
7:58 PM 43.2°F 40.3°F 90% 29.93 in 10.0 miles South 12.7 mph - 0.01 in Rain Light Rain
8:12 PM 42.8°F 41.0°F 93% 29.91 in 10.0 miles South 11.5 mph - N/A   Overcast
8:17 PM 42.8°F 41.0°F 93% 29.92 in 10.0 miles South 9.2 mph - N/A   Overcast
8:27 PM 42.8°F 41.0°F 93% 29.91 in 10.0 miles South 13.8 mph - N/A   Mostly Cloudy
8:47 PM 42.8°F 41.0°F 93% 29.92 in 10.0 miles South 10.4 mph - N/A   Mostly Cloudy
8:52 PM 42.8°F 41.0°F 93% 29.92 in 10.0 miles South 10.4 mph - N/A   Overcast
8:58 PM 42.8°F 40.5°F 91% 29.94 in 10.0 miles South 11.5 mph - 0.00 in   Overcast
9:13 PM 42.8°F 41.0°F 93% 29.92 in 10.0 miles South 10.4 mph - N/A   Overcast
9:43 PM 42.8°F 41.0°F 93% 29.93 in 10.0 miles South 10.4 mph - N/A   Mostly Cloudy
9:58 PM 42.6°F 40.5°F 92% 29.95 in 10.0 miles South 11.5 mph - N/A   Scattered Clouds
10:48 PM 42.8°F 41.0°F 93% 29.94 in 10.0 miles South 10.4 mph - N/A   Overcast
10:53 PM 42.8°F 41.0°F 93% 29.94 in 10.0 miles South 8.1 mph - N/A   Overcast
10:58 PM 42.8°F 40.5°F 91% 29.96 in 10.0 miles South 9.2 mph - N/A   Mostly Cloudy
11:13 PM 42.8°F 41.0°F 93% 29.95 in 10.0 miles South 10.4 mph - N/A   Overcast
11:58 PM 43.3°F 40.6°F 90% 29.99 in 10.0 miles South 10.4 mph - N/A   Overcast
Moon Phase
Feb. 05 Feb. 10 Feb. 17 Feb. 25 Mar. 04
Sunrise:07:29 AM (PST) Moon Rise:03:24 AM (PST)2/5
Sunset:05:19 PM (PST) Moon Set:12:34 PM (PST)2/5

Copyright © 2014 The Weather Underground, Inc.